User: anonymous   Login
Location: Unspecified
(0.0000°N, 0.0000°E)
Time: 19:21:07
(UTC+00:00)
Language:

COSMOS 2489 - Orbit

View from above orbital plane
View from above orbital plane
View from above satellite
View from above satellite

Ground track
Ground track

The orbit data is extracted from the following two-line orbital elements,

1 39484U 13076B   21026.25433345  .00000043  00000-0  23514-3 0  9990
2 39484  82.4907 315.8799 0022718  64.7132 295.6298 12.42880847321680
Epoch (UTC): 26 January 2021 06:06:14
Eccentricity: 0.0022718
inclination: 82.4907°
perigee height: 1476 km
apogee height: 1512 km
right ascension of ascending node: 315.8799°
argument of perigee: 64.7132°
revolutions per day: 12.42880847
mean anomaly at epoch: 295.6298°
orbit number at epoch: 32168

The dashed part of the orbit path shows where the satellite is in the earth's shadow,  

DLR